Index of /20260502/WXO-DD/model_rdps/10km/06/042
Name Last modified Size Description
Parent Directory -
20260502T06Z_MSC_RDPS_AbsoluteVorticity_IsbL-0250_RLatLon0.09_PT042H.grib2 2026-05-02 08:51 626K
20260502T06Z_MSC_RDPS_AbsoluteVorticity_IsbL-0500_RLatLon0.09_PT042H.grib2 2026-05-02 08:51 572K
20260502T06Z_MSC_RDPS_AbsoluteVorticity_IsbL-0700_RLatLon0.09_PT042H.grib2 2026-05-02 08:51 621K
20260502T06Z_MSC_RDPS_AbsoluteVorticity_IsbL-0850_RLatLon0.09_PT042H.grib2 2026-05-02 08:51 781K
20260502T06Z_MSC_RDPS_AirTemp_AGL-120m_RLatLon0.09_PT042H.grib2 2026-05-02 08:51 386K
20260502T06Z_MSC_RDPS_AirTemp_AGL-2m_RLatLon0.09_PT042H.grib2 2026-05-02 08:51 623K
20260502T06Z_MSC_RDPS_AirTemp_AGL-40m_RLatLon0.09_PT042H.grib2 2026-05-02 08:51 396K
20260502T06Z_MSC_RDPS_AirTemp_AGL-80m_RLatLon0.09_PT042H.grib2 2026-05-02 08:51 390K
20260502T06Z_MSC_RDPS_AirTemp_IsbL-0001_RLatLon0.09_PT042H.grib2 2026-05-02 08:51 265K
20260502T06Z_MSC_RDPS_AirTemp_IsbL-0005_RLatLon0.09_PT042H.grib2 2026-05-02 08:51 290K
20260502T06Z_MSC_RDPS_AirTemp_IsbL-0010_RLatLon0.09_PT042H.grib2 2026-05-02 08:51 301K
20260502T06Z_MSC_RDPS_AirTemp_IsbL-0020_RLatLon0.09_PT042H.grib2 2026-05-02 08:51 411K
20260502T06Z_MSC_RDPS_AirTemp_IsbL-0030_RLatLon0.09_PT042H.grib2 2026-05-02 08:51 341K
20260502T06Z_MSC_RDPS_AirTemp_IsbL-0050_RLatLon0.09_PT042H.grib2 2026-05-02 08:51 316K
20260502T06Z_MSC_RDPS_AirTemp_IsbL-0100_RLatLon0.09_PT042H.grib2 2026-05-02 08:51 427K
20260502T06Z_MSC_RDPS_AirTemp_IsbL-0150_RLatLon0.09_PT042H.grib2 2026-05-02 08:51 421K
20260502T06Z_MSC_RDPS_AirTemp_IsbL-0175_RLatLon0.09_PT042H.grib2 2026-05-02 08:51 411K
20260502T06Z_MSC_RDPS_AirTemp_IsbL-0200_RLatLon0.09_PT042H.grib2 2026-05-02 08:51 418K
20260502T06Z_MSC_RDPS_AirTemp_IsbL-0225_RLatLon0.09_PT042H.grib2 2026-05-02 08:51 424K
20260502T06Z_MSC_RDPS_AirTemp_IsbL-0250_RLatLon0.09_PT042H.grib2 2026-05-02 08:51 429K
20260502T06Z_MSC_RDPS_AirTemp_IsbL-0275_RLatLon0.09_PT042H.grib2 2026-05-02 08:51 407K
20260502T06Z_MSC_RDPS_AirTemp_IsbL-0300_RLatLon0.09_PT042H.grib2 2026-05-02 08:51 410K
20260502T06Z_MSC_RDPS_AirTemp_IsbL-0350_RLatLon0.09_PT042H.grib2 2026-05-02 08:51 424K
20260502T06Z_MSC_RDPS_AirTemp_IsbL-0400_RLatLon0.09_PT042H.grib2 2026-05-02 08:51 427K
20260502T06Z_MSC_RDPS_AirTemp_IsbL-0450_RLatLon0.09_PT042H.grib2 2026-05-02 08:51 436K
20260502T06Z_MSC_RDPS_AirTemp_IsbL-0500_RLatLon0.09_PT042H.grib2 2026-05-02 08:51 412K
20260502T06Z_MSC_RDPS_AirTemp_IsbL-0550_RLatLon0.09_PT042H.grib2 2026-05-02 08:51 431K
20260502T06Z_MSC_RDPS_AirTemp_IsbL-0600_RLatLon0.09_PT042H.grib2 2026-05-02 08:51 447K
20260502T06Z_MSC_RDPS_AirTemp_IsbL-0650_RLatLon0.09_PT042H.grib2 2026-05-02 08:51 463K
20260502T06Z_MSC_RDPS_AirTemp_IsbL-0700_RLatLon0.09_PT042H.grib2 2026-05-02 08:51 486K
20260502T06Z_MSC_RDPS_AirTemp_IsbL-0750_RLatLon0.09_PT042H.grib2 2026-05-02 08:51 408K
20260502T06Z_MSC_RDPS_AirTemp_IsbL-0800_RLatLon0.09_PT042H.grib2 2026-05-02 08:51 449K
20260502T06Z_MSC_RDPS_AirTemp_IsbL-0850_RLatLon0.09_PT042H.grib2 2026-05-02 08:51 495K
20260502T06Z_MSC_RDPS_AirTemp_IsbL-0875_RLatLon0.09_PT042H.grib2 2026-05-02 08:51 515K
20260502T06Z_MSC_RDPS_AirTemp_IsbL-0900_RLatLon0.09_PT042H.grib2 2026-05-02 08:51 525K
20260502T06Z_MSC_RDPS_AirTemp_IsbL-0925_RLatLon0.09_PT042H.grib2 2026-05-02 08:51 519K
20260502T06Z_MSC_RDPS_AirTemp_IsbL-0950_RLatLon0.09_PT042H.grib2 2026-05-02 08:51 517K
20260502T06Z_MSC_RDPS_AirTemp_IsbL-0970_RLatLon0.09_PT042H.grib2 2026-05-02 08:51 512K
20260502T06Z_MSC_RDPS_AirTemp_IsbL-0985_RLatLon0.09_PT042H.grib2 2026-05-02 08:51 504K
20260502T06Z_MSC_RDPS_AirTemp_IsbL-1000_RLatLon0.09_PT042H.grib2 2026-05-02 08:51 492K
20260502T06Z_MSC_RDPS_AirTemp_IsbL-1015_RLatLon0.09_PT042H.grib2 2026-05-02 08:51 489K
20260502T06Z_MSC_RDPS_Albedo_Sfc_RLatLon0.09_PT042H.grib2 2026-05-02 08:51 155K
20260502T06Z_MSC_RDPS_CAPE_Sfc_RLatLon0.09_PT042H.grib2 2026-05-02 08:51 1.8M
20260502T06Z_MSC_RDPS_CIN_Sfc_RLatLon0.09_PT042H.grib2 2026-05-02 08:51 1.2M
20260502T06Z_MSC_RDPS_CloudWater_EAtm_RLatLon0.09_PT042H.grib2 2026-05-02 08:51 223K
20260502T06Z_MSC_RDPS_ConvectivePrecip-Accum_Sfc_RLatLon0.09_PT042H.grib2 2026-05-02 08:51 1.0M
20260502T06Z_MSC_RDPS_DewPointDepression_AGL-2m_RLatLon0.09_PT042H.grib2 2026-05-02 08:51 418K
20260502T06Z_MSC_RDPS_DewPointDepression_IsbL-0001_RLatLon0.09_PT042H.grib2 2026-05-02 08:51 193
20260502T06Z_MSC_RDPS_DewPointDepression_IsbL-0005_RLatLon0.09_PT042H.grib2 2026-05-02 08:51 193
20260502T06Z_MSC_RDPS_DewPointDepression_IsbL-0010_RLatLon0.09_PT042H.grib2 2026-05-02 08:51 193
20260502T06Z_MSC_RDPS_DewPointDepression_IsbL-0020_RLatLon0.09_PT042H.grib2 2026-05-02 08:51 193
20260502T06Z_MSC_RDPS_DewPointDepression_IsbL-0030_RLatLon0.09_PT042H.grib2 2026-05-02 08:51 193
20260502T06Z_MSC_RDPS_DewPointDepression_IsbL-0050_RLatLon0.09_PT042H.grib2 2026-05-02 08:51 75K
20260502T06Z_MSC_RDPS_DewPointDepression_IsbL-0100_RLatLon0.09_PT042H.grib2 2026-05-02 08:51 120K
20260502T06Z_MSC_RDPS_DewPointDepression_IsbL-0150_RLatLon0.09_PT042H.grib2 2026-05-02 08:51 147K
20260502T06Z_MSC_RDPS_DewPointDepression_IsbL-0175_RLatLon0.09_PT042H.grib2 2026-05-02 08:51 186K
20260502T06Z_MSC_RDPS_DewPointDepression_IsbL-0200_RLatLon0.09_PT042H.grib2 2026-05-02 08:51 226K
20260502T06Z_MSC_RDPS_DewPointDepression_IsbL-0225_RLatLon0.09_PT042H.grib2 2026-05-02 08:51 269K
20260502T06Z_MSC_RDPS_DewPointDepression_IsbL-0250_RLatLon0.09_PT042H.grib2 2026-05-02 08:51 306K
20260502T06Z_MSC_RDPS_DewPointDepression_IsbL-0275_RLatLon0.09_PT042H.grib2 2026-05-02 08:51 313K
20260502T06Z_MSC_RDPS_DewPointDepression_IsbL-0300_RLatLon0.09_PT042H.grib2 2026-05-02 08:51 330K
20260502T06Z_MSC_RDPS_DewPointDepression_IsbL-0350_RLatLon0.09_PT042H.grib2 2026-05-02 08:51 338K
20260502T06Z_MSC_RDPS_DewPointDepression_IsbL-0400_RLatLon0.09_PT042H.grib2 2026-05-02 08:51 345K
20260502T06Z_MSC_RDPS_DewPointDepression_IsbL-0450_RLatLon0.09_PT042H.grib2 2026-05-02 08:51 346K
20260502T06Z_MSC_RDPS_DewPointDepression_IsbL-0500_RLatLon0.09_PT042H.grib2 2026-05-02 08:51 351K
20260502T06Z_MSC_RDPS_DewPointDepression_IsbL-0550_RLatLon0.09_PT042H.grib2 2026-05-02 08:51 365K
20260502T06Z_MSC_RDPS_DewPointDepression_IsbL-0600_RLatLon0.09_PT042H.grib2 2026-05-02 08:51 375K
20260502T06Z_MSC_RDPS_DewPointDepression_IsbL-0650_RLatLon0.09_PT042H.grib2 2026-05-02 08:51 381K
20260502T06Z_MSC_RDPS_DewPointDepression_IsbL-0700_RLatLon0.09_PT042H.grib2 2026-05-02 08:51 392K
20260502T06Z_MSC_RDPS_DewPointDepression_IsbL-0750_RLatLon0.09_PT042H.grib2 2026-05-02 08:51 411K
20260502T06Z_MSC_RDPS_DewPointDepression_IsbL-0800_RLatLon0.09_PT042H.grib2 2026-05-02 08:51 447K
20260502T06Z_MSC_RDPS_DewPointDepression_IsbL-0850_RLatLon0.09_PT042H.grib2 2026-05-02 08:51 474K
20260502T06Z_MSC_RDPS_DewPointDepression_IsbL-0875_RLatLon0.09_PT042H.grib2 2026-05-02 08:51 475K
20260502T06Z_MSC_RDPS_DewPointDepression_IsbL-0900_RLatLon0.09_PT042H.grib2 2026-05-02 08:51 466K
20260502T06Z_MSC_RDPS_DewPointDepression_IsbL-0925_RLatLon0.09_PT042H.grib2 2026-05-02 08:51 453K
20260502T06Z_MSC_RDPS_DewPointDepression_IsbL-0950_RLatLon0.09_PT042H.grib2 2026-05-02 08:51 445K
20260502T06Z_MSC_RDPS_DewPointDepression_IsbL-0970_RLatLon0.09_PT042H.grib2 2026-05-02 08:51 436K
20260502T06Z_MSC_RDPS_DewPointDepression_IsbL-0985_RLatLon0.09_PT042H.grib2 2026-05-02 08:51 431K
20260502T06Z_MSC_RDPS_DewPointDepression_IsbL-1000_RLatLon0.09_PT042H.grib2 2026-05-02 08:51 427K
20260502T06Z_MSC_RDPS_DewPointDepression_IsbL-1015_RLatLon0.09_PT042H.grib2 2026-05-02 08:51 419K
20260502T06Z_MSC_RDPS_DewPoint_AGL-2m_RLatLon0.09_PT042H.grib2 2026-05-02 08:51 311K
20260502T06Z_MSC_RDPS_DownwardLongwaveRadiationFlux-Accum_Sfc_RLatLon0.09_PT042H.grib2 2026-05-02 08:51 392K
20260502T06Z_MSC_RDPS_DownwardShortwaveRadiationFlux-Accum_NTAtm_RLatLon0.09_PT042H.grib2 2026-05-02 08:51 130K
20260502T06Z_MSC_RDPS_DownwardShortwaveRadiationFlux-Accum_Sfc_RLatLon0.09_PT042H.grib2 2026-05-02 08:51 552K
20260502T06Z_MSC_RDPS_FreezingRain-Accum12h_Sfc_RLatLon0.09_PT042H.grib2 2026-05-02 08:51 54K
20260502T06Z_MSC_RDPS_FreezingRain-Accum1h_Sfc_RLatLon0.09_PT042H.grib2 2026-05-02 08:51 21K
20260502T06Z_MSC_RDPS_FreezingRain-Accum24h_Sfc_RLatLon0.09_PT042H.grib2 2026-05-02 08:51 88K
20260502T06Z_MSC_RDPS_FreezingRain-Accum3h_Sfc_RLatLon0.09_PT042H.grib2 2026-05-02 08:51 20K
20260502T06Z_MSC_RDPS_FreezingRain-Accum6h_Sfc_RLatLon0.09_PT042H.grib2 2026-05-02 08:51 24K
20260502T06Z_MSC_RDPS_FreezingRain-Accum_Sfc_RLatLon0.09_PT042H.grib2 2026-05-02 08:51 140K
20260502T06Z_MSC_RDPS_GeopotentialHeight_IsbL-0001_RLatLon0.09_PT042H.grib2 2026-05-02 08:51 313K
20260502T06Z_MSC_RDPS_GeopotentialHeight_IsbL-0005_RLatLon0.09_PT042H.grib2 2026-05-02 08:51 336K
20260502T06Z_MSC_RDPS_GeopotentialHeight_IsbL-0010_RLatLon0.09_PT042H.grib2 2026-05-02 08:51 303K
20260502T06Z_MSC_RDPS_GeopotentialHeight_IsbL-0020_RLatLon0.09_PT042H.grib2 2026-05-02 08:51 398K
20260502T06Z_MSC_RDPS_GeopotentialHeight_IsbL-0030_RLatLon0.09_PT042H.grib2 2026-05-02 08:51 305K
20260502T06Z_MSC_RDPS_GeopotentialHeight_IsbL-0050_RLatLon0.09_PT042H.grib2 2026-05-02 08:51 341K
20260502T06Z_MSC_RDPS_GeopotentialHeight_IsbL-0100_RLatLon0.09_PT042H.grib2 2026-05-02 08:51 288K
20260502T06Z_MSC_RDPS_GeopotentialHeight_IsbL-0150_RLatLon0.09_PT042H.grib2 2026-05-02 08:51 231K
20260502T06Z_MSC_RDPS_GeopotentialHeight_IsbL-0175_RLatLon0.09_PT042H.grib2 2026-05-02 08:51 234K
20260502T06Z_MSC_RDPS_GeopotentialHeight_IsbL-0200_RLatLon0.09_PT042H.grib2 2026-05-02 08:51 266K
20260502T06Z_MSC_RDPS_GeopotentialHeight_IsbL-0225_RLatLon0.09_PT042H.grib2 2026-05-02 08:51 266K
20260502T06Z_MSC_RDPS_GeopotentialHeight_IsbL-0250_RLatLon0.09_PT042H.grib2 2026-05-02 08:51 267K
20260502T06Z_MSC_RDPS_GeopotentialHeight_IsbL-0275_RLatLon0.09_PT042H.grib2 2026-05-02 08:51 266K
20260502T06Z_MSC_RDPS_GeopotentialHeight_IsbL-0300_RLatLon0.09_PT042H.grib2 2026-05-02 08:51 235K
20260502T06Z_MSC_RDPS_GeopotentialHeight_IsbL-0350_RLatLon0.09_PT042H.grib2 2026-05-02 08:51 231K
20260502T06Z_MSC_RDPS_GeopotentialHeight_IsbL-0400_RLatLon0.09_PT042H.grib2 2026-05-02 08:51 228K
20260502T06Z_MSC_RDPS_GeopotentialHeight_IsbL-0450_RLatLon0.09_PT042H.grib2 2026-05-02 08:51 298K
20260502T06Z_MSC_RDPS_GeopotentialHeight_IsbL-0500_RLatLon0.09_PT042H.grib2 2026-05-02 08:51 293K
20260502T06Z_MSC_RDPS_GeopotentialHeight_IsbL-0550_RLatLon0.09_PT042H.grib2 2026-05-02 08:51 291K
20260502T06Z_MSC_RDPS_GeopotentialHeight_IsbL-0600_RLatLon0.09_PT042H.grib2 2026-05-02 08:51 287K
20260502T06Z_MSC_RDPS_GeopotentialHeight_IsbL-0650_RLatLon0.09_PT042H.grib2 2026-05-02 08:51 257K
20260502T06Z_MSC_RDPS_GeopotentialHeight_IsbL-0700_RLatLon0.09_PT042H.grib2 2026-05-02 08:51 256K
20260502T06Z_MSC_RDPS_GeopotentialHeight_IsbL-0750_RLatLon0.09_PT042H.grib2 2026-05-02 08:51 257K
20260502T06Z_MSC_RDPS_GeopotentialHeight_IsbL-0800_RLatLon0.09_PT042H.grib2 2026-05-02 08:51 345K
20260502T06Z_MSC_RDPS_GeopotentialHeight_IsbL-0850_RLatLon0.09_PT042H.grib2 2026-05-02 08:51 352K
20260502T06Z_MSC_RDPS_GeopotentialHeight_IsbL-0875_RLatLon0.09_PT042H.grib2 2026-05-02 08:51 356K
20260502T06Z_MSC_RDPS_GeopotentialHeight_IsbL-0900_RLatLon0.09_PT042H.grib2 2026-05-02 08:51 360K
20260502T06Z_MSC_RDPS_GeopotentialHeight_IsbL-0925_RLatLon0.09_PT042H.grib2 2026-05-02 08:51 360K
20260502T06Z_MSC_RDPS_GeopotentialHeight_IsbL-0950_RLatLon0.09_PT042H.grib2 2026-05-02 08:51 365K
20260502T06Z_MSC_RDPS_GeopotentialHeight_IsbL-0970_RLatLon0.09_PT042H.grib2 2026-05-02 08:51 370K
20260502T06Z_MSC_RDPS_GeopotentialHeight_IsbL-0985_RLatLon0.09_PT042H.grib2 2026-05-02 08:51 377K
20260502T06Z_MSC_RDPS_GeopotentialHeight_IsbL-1000_RLatLon0.09_PT042H.grib2 2026-05-02 08:51 388K
20260502T06Z_MSC_RDPS_GeopotentialHeight_IsbL-1015_RLatLon0.09_PT042H.grib2 2026-05-02 08:51 403K
20260502T06Z_MSC_RDPS_Humidex_Sfc_RLatLon0.09_PT042H.grib2 2026-05-02 08:51 2.4M
20260502T06Z_MSC_RDPS_IcePellets-Accum12h_Sfc_RLatLon0.09_PT042H.grib2 2026-05-02 08:51 3.7K
20260502T06Z_MSC_RDPS_IcePellets-Accum1h_Sfc_RLatLon0.09_PT042H.grib2 2026-05-02 08:51 1.6K
20260502T06Z_MSC_RDPS_IcePellets-Accum24h_Sfc_RLatLon0.09_PT042H.grib2 2026-05-02 08:51 7.7K
20260502T06Z_MSC_RDPS_IcePellets-Accum3h_Sfc_RLatLon0.09_PT042H.grib2 2026-05-02 08:51 1.7K
20260502T06Z_MSC_RDPS_IcePellets-Accum6h_Sfc_RLatLon0.09_PT042H.grib2 2026-05-02 08:51 2.3K
20260502T06Z_MSC_RDPS_IcePellets-Accum_Sfc_RLatLon0.09_PT042H.grib2 2026-05-02 08:51 18K
20260502T06Z_MSC_RDPS_KIndex_Sfc_RLatLon0.09_PT042H.grib2 2026-05-02 08:51 2.5M
20260502T06Z_MSC_RDPS_LatentHeatNetFlux_Sfc_RLatLon0.09_PT042H.grib2 2026-05-02 08:51 359K
20260502T06Z_MSC_RDPS_LiftedIndex-MU-VT_IsbL-0500_RLatLon0.09_PT042H.grib2 2026-05-02 08:51 2.4M
20260502T06Z_MSC_RDPS_NetLongwaveRadiationFlux-Accum_Sfc_RLatLon0.09_PT042H.grib2 2026-05-02 08:51 534K
20260502T06Z_MSC_RDPS_NetShortwaveRadiationFlux-Accum_Sfc_RLatLon0.09_PT042H.grib2 2026-05-02 08:51 554K
20260502T06Z_MSC_RDPS_PlanetaryBoundaryLayerHeight_Sfc_RLatLon0.09_PT042H.grib2 2026-05-02 08:51 1.0M
20260502T06Z_MSC_RDPS_Precip-Accum12h_Sfc_RLatLon0.09_PT042H.grib2 2026-05-02 08:51 1.8M
20260502T06Z_MSC_RDPS_Precip-Accum1h_Sfc_RLatLon0.09_PT042H.grib2 2026-05-02 08:51 1.2M
20260502T06Z_MSC_RDPS_Precip-Accum24h_Sfc_RLatLon0.09_PT042H.grib2 2026-05-02 08:51 1.9M
20260502T06Z_MSC_RDPS_Precip-Accum3h_Sfc_RLatLon0.09_PT042H.grib2 2026-05-02 08:51 1.4M
20260502T06Z_MSC_RDPS_Precip-Accum6h_Sfc_RLatLon0.09_PT042H.grib2 2026-05-02 08:51 1.5M
20260502T06Z_MSC_RDPS_Precip-Accum_Sfc_RLatLon0.09_PT042H.grib2 2026-05-02 08:51 2.1M
20260502T06Z_MSC_RDPS_PrecipRate_Sfc_RLatLon0.09_PT042H.grib2 2026-05-02 08:51 128K
20260502T06Z_MSC_RDPS_PrecipType-Instant_Sfc_RLatLon0.09_PT042H.grib2 2026-05-02 08:51 580K
20260502T06Z_MSC_RDPS_Pressure-Trend3h_Sfc_RLatLon0.09_PT042H.grib2 2026-05-02 08:51 1.1M
20260502T06Z_MSC_RDPS_Pressure_MSL_RLatLon0.09_PT042H.grib2 2026-05-02 08:51 325K
20260502T06Z_MSC_RDPS_Pressure_PVU-1.5_RLatLon0.09_PT042H.grib2 2026-05-02 08:51 2.3M
20260502T06Z_MSC_RDPS_Pressure_PVU-1_RLatLon0.09_PT042H.grib2 2026-05-02 08:51 2.4M
20260502T06Z_MSC_RDPS_Pressure_PVU-2_RLatLon0.09_PT042H.grib2 2026-05-02 08:51 2.4M
20260502T06Z_MSC_RDPS_Pressure_Sfc_RLatLon0.09_PT042H.grib2 2026-05-02 08:51 498K
20260502T06Z_MSC_RDPS_RadiativeTemp_Sfc_RLatLon0.09_PT042H.grib2 2026-05-02 08:51 314K
20260502T06Z_MSC_RDPS_Rain-Accum12h_Sfc_RLatLon0.09_PT042H.grib2 2026-05-02 08:51 1.2M
20260502T06Z_MSC_RDPS_Rain-Accum1h_Sfc_RLatLon0.09_PT042H.grib2 2026-05-02 08:51 538K
20260502T06Z_MSC_RDPS_Rain-Accum24h_Sfc_RLatLon0.09_PT042H.grib2 2026-05-02 08:51 1.4M
20260502T06Z_MSC_RDPS_Rain-Accum3h_Sfc_RLatLon0.09_PT042H.grib2 2026-05-02 08:51 742K
20260502T06Z_MSC_RDPS_Rain-Accum6h_Sfc_RLatLon0.09_PT042H.grib2 2026-05-02 08:51 1.0M
20260502T06Z_MSC_RDPS_Rain-Accum_Sfc_RLatLon0.09_PT042H.grib2 2026-05-02 08:51 1.6M
20260502T06Z_MSC_RDPS_RelativeHumidity_AGL-2m_RLatLon0.09_PT042H.grib2 2026-05-02 08:51 1.0M
20260502T06Z_MSC_RDPS_RelativeHumidity_IsbL-0010_RLatLon0.09_PT042H.grib2 2026-05-02 08:51 621K
20260502T06Z_MSC_RDPS_RelativeHumidity_IsbL-0020_RLatLon0.09_PT042H.grib2 2026-05-02 08:51 664K
20260502T06Z_MSC_RDPS_RelativeHumidity_IsbL-0030_RLatLon0.09_PT042H.grib2 2026-05-02 08:51 605K
20260502T06Z_MSC_RDPS_RelativeHumidity_IsbL-0050_RLatLon0.09_PT042H.grib2 2026-05-02 08:51 360K
20260502T06Z_MSC_RDPS_RelativeHumidity_IsbL-0100_RLatLon0.09_PT042H.grib2 2026-05-02 08:51 280K
20260502T06Z_MSC_RDPS_RelativeHumidity_IsbL-0150_RLatLon0.09_PT042H.grib2 2026-05-02 08:51 417K
20260502T06Z_MSC_RDPS_RelativeHumidity_IsbL-0175_RLatLon0.09_PT042H.grib2 2026-05-02 08:51 484K
20260502T06Z_MSC_RDPS_RelativeHumidity_IsbL-0200_RLatLon0.09_PT042H.grib2 2026-05-02 08:51 560K
20260502T06Z_MSC_RDPS_RelativeHumidity_IsbL-0225_RLatLon0.09_PT042H.grib2 2026-05-02 08:51 629K
20260502T06Z_MSC_RDPS_RelativeHumidity_IsbL-0250_RLatLon0.09_PT042H.grib2 2026-05-02 08:51 694K
20260502T06Z_MSC_RDPS_RelativeHumidity_IsbL-0275_RLatLon0.09_PT042H.grib2 2026-05-02 08:51 716K
20260502T06Z_MSC_RDPS_RelativeHumidity_IsbL-0300_RLatLon0.09_PT042H.grib2 2026-05-02 08:51 752K
20260502T06Z_MSC_RDPS_RelativeHumidity_IsbL-0350_RLatLon0.09_PT042H.grib2 2026-05-02 08:51 780K
20260502T06Z_MSC_RDPS_RelativeHumidity_IsbL-0400_RLatLon0.09_PT042H.grib2 2026-05-02 08:51 792K
20260502T06Z_MSC_RDPS_RelativeHumidity_IsbL-0450_RLatLon0.09_PT042H.grib2 2026-05-02 08:51 793K
20260502T06Z_MSC_RDPS_RelativeHumidity_IsbL-0500_RLatLon0.09_PT042H.grib2 2026-05-02 08:51 799K
20260502T06Z_MSC_RDPS_RelativeHumidity_IsbL-0550_RLatLon0.09_PT042H.grib2 2026-05-02 08:51 820K
20260502T06Z_MSC_RDPS_RelativeHumidity_IsbL-0600_RLatLon0.09_PT042H.grib2 2026-05-02 08:51 838K
20260502T06Z_MSC_RDPS_RelativeHumidity_IsbL-0650_RLatLon0.09_PT042H.grib2 2026-05-02 08:51 851K
20260502T06Z_MSC_RDPS_RelativeHumidity_IsbL-0700_RLatLon0.09_PT042H.grib2 2026-05-02 08:51 875K
20260502T06Z_MSC_RDPS_RelativeHumidity_IsbL-0750_RLatLon0.09_PT042H.grib2 2026-05-02 08:51 923K
20260502T06Z_MSC_RDPS_RelativeHumidity_IsbL-0800_RLatLon0.09_PT042H.grib2 2026-05-02 08:51 1.0M
20260502T06Z_MSC_RDPS_RelativeHumidity_IsbL-0850_RLatLon0.09_PT042H.grib2 2026-05-02 08:51 1.0M
20260502T06Z_MSC_RDPS_RelativeHumidity_IsbL-0875_RLatLon0.09_PT042H.grib2 2026-05-02 08:51 1.1M
20260502T06Z_MSC_RDPS_RelativeHumidity_IsbL-0900_RLatLon0.09_PT042H.grib2 2026-05-02 08:51 1.1M
20260502T06Z_MSC_RDPS_RelativeHumidity_IsbL-0925_RLatLon0.09_PT042H.grib2 2026-05-02 08:51 1.1M
20260502T06Z_MSC_RDPS_RelativeHumidity_IsbL-0950_RLatLon0.09_PT042H.grib2 2026-05-02 08:51 1.1M
20260502T06Z_MSC_RDPS_RelativeHumidity_IsbL-0970_RLatLon0.09_PT042H.grib2 2026-05-02 08:51 1.0M
20260502T06Z_MSC_RDPS_RelativeHumidity_IsbL-0985_RLatLon0.09_PT042H.grib2 2026-05-02 08:51 1.0M
20260502T06Z_MSC_RDPS_RelativeHumidity_IsbL-1000_RLatLon0.09_PT042H.grib2 2026-05-02 08:51 1.0M
20260502T06Z_MSC_RDPS_RelativeHumidity_IsbL-1015_RLatLon0.09_PT042H.grib2 2026-05-02 08:51 1.0M
20260502T06Z_MSC_RDPS_Runoff-Accum_Sfc_RLatLon0.09_PT042H.grib2 2026-05-02 08:51 70K
20260502T06Z_MSC_RDPS_SWEATIndex_Sfc_RLatLon0.09_PT042H.grib2 2026-05-02 08:51 2.4M
20260502T06Z_MSC_RDPS_SeeingIndex_EAtm_RLatLon0.09_PT042H.grib2 2026-05-02 08:51 1.0M
20260502T06Z_MSC_RDPS_SensibleHeatNetFlux_Sfc_RLatLon0.09_PT042H.grib2 2026-05-02 08:51 315K
20260502T06Z_MSC_RDPS_ShowalterIndex_IsbL-0500_RLatLon0.09_PT042H.grib2 2026-05-02 08:51 2.6M
20260502T06Z_MSC_RDPS_SkyTransparencyIndex_EAtm_RLatLon0.09_PT042H.grib2 2026-05-02 08:51 725K
20260502T06Z_MSC_RDPS_Snow-Accum12h_Sfc_RLatLon0.09_PT042H.grib2 2026-05-02 08:51 586K
20260502T06Z_MSC_RDPS_Snow-Accum1h_Sfc_RLatLon0.09_PT042H.grib2 2026-05-02 08:51 433K
20260502T06Z_MSC_RDPS_Snow-Accum24h_Sfc_RLatLon0.09_PT042H.grib2 2026-05-02 08:51 640K
20260502T06Z_MSC_RDPS_Snow-Accum3h_Sfc_RLatLon0.09_PT042H.grib2 2026-05-02 08:51 434K
20260502T06Z_MSC_RDPS_Snow-Accum6h_Sfc_RLatLon0.09_PT042H.grib2 2026-05-02 08:51 563K
20260502T06Z_MSC_RDPS_Snow-Accum_Sfc_RLatLon0.09_PT042H.grib2 2026-05-02 08:51 751K
20260502T06Z_MSC_RDPS_SnowDensity_Sfc_RLatLon0.09_PT042H.grib2 2026-05-02 08:51 172K
20260502T06Z_MSC_RDPS_SnowDepth_Sfc_RLatLon0.09_PT042H.grib2 2026-05-02 08:51 650K
20260502T06Z_MSC_RDPS_SoilTemp_DBS-0to10cm_RLatLon0.09_PT042H.grib2 2026-05-02 08:51 241K
20260502T06Z_MSC_RDPS_SoilTemp_Sfc_RLatLon0.09_PT042H.grib2 2026-05-02 08:51 277K
20260502T06Z_MSC_RDPS_SoilVolumetricIceContent_Sfc_RLatLon0.09_PT042H.grib2 2026-05-02 08:51 156K
20260502T06Z_MSC_RDPS_SoilVolumetricWaterContent_DBS-0to10cm_RLatLon0.09_PT042H.grib2 2026-05-02 08:51 273K
20260502T06Z_MSC_RDPS_SoilVolumetricWaterContent_DBS-0to1cm_RLatLon0.09_PT042H.grib2 2026-05-02 08:51 341K
20260502T06Z_MSC_RDPS_SpecificHumidity_AGL-120m_RLatLon0.09_PT042H.grib2 2026-05-02 08:51 489K
20260502T06Z_MSC_RDPS_SpecificHumidity_AGL-2m_RLatLon0.09_PT042H.grib2 2026-05-02 08:51 663K
20260502T06Z_MSC_RDPS_SpecificHumidity_AGL-40m_RLatLon0.09_PT042H.grib2 2026-05-02 08:51 497K
20260502T06Z_MSC_RDPS_SpecificHumidity_AGL-80m_RLatLon0.09_PT042H.grib2 2026-05-02 08:51 492K
20260502T06Z_MSC_RDPS_SpecificHumidity_IsbL-0001_RLatLon0.09_PT042H.grib2 2026-05-02 08:51 367K
20260502T06Z_MSC_RDPS_SpecificHumidity_IsbL-0005_RLatLon0.09_PT042H.grib2 2026-05-02 08:51 366K
20260502T06Z_MSC_RDPS_SpecificHumidity_IsbL-0010_RLatLon0.09_PT042H.grib2 2026-05-02 08:51 402K
20260502T06Z_MSC_RDPS_SpecificHumidity_IsbL-0020_RLatLon0.09_PT042H.grib2 2026-05-02 08:51 378K
20260502T06Z_MSC_RDPS_SpecificHumidity_IsbL-0030_RLatLon0.09_PT042H.grib2 2026-05-02 08:51 372K
20260502T06Z_MSC_RDPS_SpecificHumidity_IsbL-0050_RLatLon0.09_PT042H.grib2 2026-05-02 08:51 483K
20260502T06Z_MSC_RDPS_SpecificHumidity_IsbL-0100_RLatLon0.09_PT042H.grib2 2026-05-02 08:51 427K
20260502T06Z_MSC_RDPS_SpecificHumidity_IsbL-0150_RLatLon0.09_PT042H.grib2 2026-05-02 08:51 457K
20260502T06Z_MSC_RDPS_SpecificHumidity_IsbL-0175_RLatLon0.09_PT042H.grib2 2026-05-02 08:51 447K
20260502T06Z_MSC_RDPS_SpecificHumidity_IsbL-0200_RLatLon0.09_PT042H.grib2 2026-05-02 08:51 466K
20260502T06Z_MSC_RDPS_SpecificHumidity_IsbL-0225_RLatLon0.09_PT042H.grib2 2026-05-02 08:51 467K
20260502T06Z_MSC_RDPS_SpecificHumidity_IsbL-0250_RLatLon0.09_PT042H.grib2 2026-05-02 08:51 526K
20260502T06Z_MSC_RDPS_SpecificHumidity_IsbL-0275_RLatLon0.09_PT042H.grib2 2026-05-02 08:51 483K
20260502T06Z_MSC_RDPS_SpecificHumidity_IsbL-0300_RLatLon0.09_PT042H.grib2 2026-05-02 08:51 454K
20260502T06Z_MSC_RDPS_SpecificHumidity_IsbL-0350_RLatLon0.09_PT042H.grib2 2026-05-02 08:51 453K
20260502T06Z_MSC_RDPS_SpecificHumidity_IsbL-0400_RLatLon0.09_PT042H.grib2 2026-05-02 08:51 530K
20260502T06Z_MSC_RDPS_SpecificHumidity_IsbL-0450_RLatLon0.09_PT042H.grib2 2026-05-02 08:51 575K
20260502T06Z_MSC_RDPS_SpecificHumidity_IsbL-0500_RLatLon0.09_PT042H.grib2 2026-05-02 08:51 512K
20260502T06Z_MSC_RDPS_SpecificHumidity_IsbL-0550_RLatLon0.09_PT042H.grib2 2026-05-02 08:51 587K
20260502T06Z_MSC_RDPS_SpecificHumidity_IsbL-0600_RLatLon0.09_PT042H.grib2 2026-05-02 08:51 637K
20260502T06Z_MSC_RDPS_SpecificHumidity_IsbL-0650_RLatLon0.09_PT042H.grib2 2026-05-02 08:51 554K
20260502T06Z_MSC_RDPS_SpecificHumidity_IsbL-0700_RLatLon0.09_PT042H.grib2 2026-05-02 08:51 597K
20260502T06Z_MSC_RDPS_SpecificHumidity_IsbL-0750_RLatLon0.09_PT042H.grib2 2026-05-02 08:51 651K
20260502T06Z_MSC_RDPS_SpecificHumidity_IsbL-0800_RLatLon0.09_PT042H.grib2 2026-05-02 08:51 735K
20260502T06Z_MSC_RDPS_SpecificHumidity_IsbL-0850_RLatLon0.09_PT042H.grib2 2026-05-02 08:51 808K
20260502T06Z_MSC_RDPS_SpecificHumidity_IsbL-0875_RLatLon0.09_PT042H.grib2 2026-05-02 08:51 836K
20260502T06Z_MSC_RDPS_SpecificHumidity_IsbL-0900_RLatLon0.09_PT042H.grib2 2026-05-02 08:51 709K
20260502T06Z_MSC_RDPS_SpecificHumidity_IsbL-0925_RLatLon0.09_PT042H.grib2 2026-05-02 08:51 710K
20260502T06Z_MSC_RDPS_SpecificHumidity_IsbL-0950_RLatLon0.09_PT042H.grib2 2026-05-02 08:51 710K
20260502T06Z_MSC_RDPS_SpecificHumidity_IsbL-0970_RLatLon0.09_PT042H.grib2 2026-05-02 08:51 701K
20260502T06Z_MSC_RDPS_SpecificHumidity_IsbL-0985_RLatLon0.09_PT042H.grib2 2026-05-02 08:51 692K
20260502T06Z_MSC_RDPS_SpecificHumidity_IsbL-1000_RLatLon0.09_PT042H.grib2 2026-05-02 08:51 688K
20260502T06Z_MSC_RDPS_SpecificHumidity_IsbL-1015_RLatLon0.09_PT042H.grib2 2026-05-02 08:51 678K
20260502T06Z_MSC_RDPS_SpecificHumidity_Sfc_RLatLon0.09_PT042H.grib2 2026-05-02 08:51 336K
20260502T06Z_MSC_RDPS_StormRelativeHelicity_EtaL-10000_RLatLon0.09_PT042H.grib2 2026-05-02 08:51 1.1M
20260502T06Z_MSC_RDPS_StormSeverityIndex_EtaL-10000_RLatLon0.09_PT042H.grib2 2026-05-02 08:51 1.1M
20260502T06Z_MSC_RDPS_Thickness_IsbL-0850to0700_RLatLon0.09_PT042H.grib2 2026-05-02 08:51 175K
20260502T06Z_MSC_RDPS_Thickness_IsbL-1000to0500_RLatLon0.09_PT042H.grib2 2026-05-02 08:51 195K
20260502T06Z_MSC_RDPS_Thickness_IsbL-1000to0850_RLatLon0.09_PT042H.grib2 2026-05-02 08:51 183K
20260502T06Z_MSC_RDPS_TotalCloudCover_Sfc_RLatLon0.09_PT042H.grib2 2026-05-02 08:51 659K
20260502T06Z_MSC_RDPS_TotalTotalsIndex_Sfc_RLatLon0.09_PT042H.grib2 2026-05-02 08:51 2.4M
20260502T06Z_MSC_RDPS_UVIndex-ClearSky_Sfc_RLatLon0.09_PT042H.grib2 2026-05-02 08:51 189K
20260502T06Z_MSC_RDPS_UVIndex_Sfc_RLatLon0.09_PT042H.grib2 2026-05-02 08:51 394K
20260502T06Z_MSC_RDPS_UpwardLongwaveRadiationFlux_NTAtm_RLatLon0.09_PT042H.grib2 2026-05-02 08:51 495K
20260502T06Z_MSC_RDPS_UpwardShortwaveRadiationFlux_NTAtm_RLatLon0.09_PT042H.grib2 2026-05-02 08:51 338K
20260502T06Z_MSC_RDPS_VerticalVelocity_IsbL-0250_RLatLon0.09_PT042H.grib2 2026-05-02 08:51 457K
20260502T06Z_MSC_RDPS_VerticalVelocity_IsbL-0500_RLatLon0.09_PT042H.grib2 2026-05-02 08:51 543K
20260502T06Z_MSC_RDPS_VerticalVelocity_IsbL-0700_RLatLon0.09_PT042H.grib2 2026-05-02 08:51 597K
20260502T06Z_MSC_RDPS_VerticalVelocity_IsbL-0850_RLatLon0.09_PT042H.grib2 2026-05-02 08:51 697K
20260502T06Z_MSC_RDPS_VerticalWindShear_EtaL-6500_RLatLon0.09_PT042H.grib2 2026-05-02 08:51 1.2M
20260502T06Z_MSC_RDPS_WindChill_Sfc_RLatLon0.09_PT042H.grib2 2026-05-02 08:51 1.1M
20260502T06Z_MSC_RDPS_WindDir_AGL-10m_RLatLon0.09_PT042H.grib2 2026-05-02 08:51 952K
20260502T06Z_MSC_RDPS_WindDir_AGL-120m_RLatLon0.09_PT042H.grib2 2026-05-02 08:51 597K
20260502T06Z_MSC_RDPS_WindDir_AGL-40m_RLatLon0.09_PT042H.grib2 2026-05-02 08:51 622K
20260502T06Z_MSC_RDPS_WindDir_AGL-80m_RLatLon0.09_PT042H.grib2 2026-05-02 08:51 607K
20260502T06Z_MSC_RDPS_WindDir_IsbL-0001_RLatLon0.09_PT042H.grib2 2026-05-02 08:51 283K
20260502T06Z_MSC_RDPS_WindDir_IsbL-0005_RLatLon0.09_PT042H.grib2 2026-05-02 08:51 374K
20260502T06Z_MSC_RDPS_WindDir_IsbL-0010_RLatLon0.09_PT042H.grib2 2026-05-02 08:51 400K
20260502T06Z_MSC_RDPS_WindDir_IsbL-0020_RLatLon0.09_PT042H.grib2 2026-05-02 08:51 433K
20260502T06Z_MSC_RDPS_WindDir_IsbL-0030_RLatLon0.09_PT042H.grib2 2026-05-02 08:51 419K
20260502T06Z_MSC_RDPS_WindDir_IsbL-0050_RLatLon0.09_PT042H.grib2 2026-05-02 08:51 411K
20260502T06Z_MSC_RDPS_WindDir_IsbL-0100_RLatLon0.09_PT042H.grib2 2026-05-02 08:51 411K
20260502T06Z_MSC_RDPS_WindDir_IsbL-0150_RLatLon0.09_PT042H.grib2 2026-05-02 08:51 418K
20260502T06Z_MSC_RDPS_WindDir_IsbL-0175_RLatLon0.09_PT042H.grib2 2026-05-02 08:51 438K
20260502T06Z_MSC_RDPS_WindDir_IsbL-0200_RLatLon0.09_PT042H.grib2 2026-05-02 08:51 454K
20260502T06Z_MSC_RDPS_WindDir_IsbL-0225_RLatLon0.09_PT042H.grib2 2026-05-02 08:51 462K
20260502T06Z_MSC_RDPS_WindDir_IsbL-0250_RLatLon0.09_PT042H.grib2 2026-05-02 08:51 467K
20260502T06Z_MSC_RDPS_WindDir_IsbL-0275_RLatLon0.09_PT042H.grib2 2026-05-02 08:51 484K
20260502T06Z_MSC_RDPS_WindDir_IsbL-0300_RLatLon0.09_PT042H.grib2 2026-05-02 08:51 477K
20260502T06Z_MSC_RDPS_WindDir_IsbL-0350_RLatLon0.09_PT042H.grib2 2026-05-02 08:51 497K
20260502T06Z_MSC_RDPS_WindDir_IsbL-0400_RLatLon0.09_PT042H.grib2 2026-05-02 08:51 523K
20260502T06Z_MSC_RDPS_WindDir_IsbL-0450_RLatLon0.09_PT042H.grib2 2026-05-02 08:51 526K
20260502T06Z_MSC_RDPS_WindDir_IsbL-0500_RLatLon0.09_PT042H.grib2 2026-05-02 08:51 533K
20260502T06Z_MSC_RDPS_WindDir_IsbL-0550_RLatLon0.09_PT042H.grib2 2026-05-02 08:51 543K
20260502T06Z_MSC_RDPS_WindDir_IsbL-0600_RLatLon0.09_PT042H.grib2 2026-05-02 08:51 567K
20260502T06Z_MSC_RDPS_WindDir_IsbL-0650_RLatLon0.09_PT042H.grib2 2026-05-02 08:51 603K
20260502T06Z_MSC_RDPS_WindDir_IsbL-0700_RLatLon0.09_PT042H.grib2 2026-05-02 08:51 646K
20260502T06Z_MSC_RDPS_WindDir_IsbL-0750_RLatLon0.09_PT042H.grib2 2026-05-02 08:51 694K
20260502T06Z_MSC_RDPS_WindDir_IsbL-0800_RLatLon0.09_PT042H.grib2 2026-05-02 08:51 759K
20260502T06Z_MSC_RDPS_WindDir_IsbL-0850_RLatLon0.09_PT042H.grib2 2026-05-02 08:51 843K
20260502T06Z_MSC_RDPS_WindDir_IsbL-0875_RLatLon0.09_PT042H.grib2 2026-05-02 08:51 877K
20260502T06Z_MSC_RDPS_WindDir_IsbL-0900_RLatLon0.09_PT042H.grib2 2026-05-02 08:51 896K
20260502T06Z_MSC_RDPS_WindDir_IsbL-0925_RLatLon0.09_PT042H.grib2 2026-05-02 08:51 903K
20260502T06Z_MSC_RDPS_WindDir_IsbL-0950_RLatLon0.09_PT042H.grib2 2026-05-02 08:51 901K
20260502T06Z_MSC_RDPS_WindDir_IsbL-0970_RLatLon0.09_PT042H.grib2 2026-05-02 08:51 906K
20260502T06Z_MSC_RDPS_WindDir_IsbL-0985_RLatLon0.09_PT042H.grib2 2026-05-02 08:51 917K
20260502T06Z_MSC_RDPS_WindDir_IsbL-1000_RLatLon0.09_PT042H.grib2 2026-05-02 08:51 929K
20260502T06Z_MSC_RDPS_WindDir_IsbL-1015_RLatLon0.09_PT042H.grib2 2026-05-02 08:51 943K
20260502T06Z_MSC_RDPS_WindGust-Max_AGL-10m_RLatLon0.09_PT042H.grib2 2026-05-02 08:51 1.0M
20260502T06Z_MSC_RDPS_WindGust-Min_AGL-10m_RLatLon0.09_PT042H.grib2 2026-05-02 08:51 1.0M
20260502T06Z_MSC_RDPS_WindGust_AGL-10m_RLatLon0.09_PT042H.grib2 2026-05-02 08:51 1.0M
20260502T06Z_MSC_RDPS_WindSpeed_AGL-10m_RLatLon0.09_PT042H.grib2 2026-05-02 08:51 834K
20260502T06Z_MSC_RDPS_WindSpeed_AGL-120m_RLatLon0.09_PT042H.grib2 2026-05-02 08:51 530K
20260502T06Z_MSC_RDPS_WindSpeed_AGL-40m_RLatLon0.09_PT042H.grib2 2026-05-02 08:51 536K
20260502T06Z_MSC_RDPS_WindSpeed_AGL-80m_RLatLon0.09_PT042H.grib2 2026-05-02 08:51 531K
20260502T06Z_MSC_RDPS_WindSpeed_IsbL-0001_RLatLon0.09_PT042H.grib2 2026-05-02 08:51 252K
20260502T06Z_MSC_RDPS_WindSpeed_IsbL-0005_RLatLon0.09_PT042H.grib2 2026-05-02 08:51 385K
20260502T06Z_MSC_RDPS_WindSpeed_IsbL-0010_RLatLon0.09_PT042H.grib2 2026-05-02 08:51 369K
20260502T06Z_MSC_RDPS_WindSpeed_IsbL-0020_RLatLon0.09_PT042H.grib2 2026-05-02 08:51 324K
20260502T06Z_MSC_RDPS_WindSpeed_IsbL-0030_RLatLon0.09_PT042H.grib2 2026-05-02 08:51 324K
20260502T06Z_MSC_RDPS_WindSpeed_IsbL-0050_RLatLon0.09_PT042H.grib2 2026-05-02 08:51 354K
20260502T06Z_MSC_RDPS_WindSpeed_IsbL-0100_RLatLon0.09_PT042H.grib2 2026-05-02 08:51 479K
20260502T06Z_MSC_RDPS_WindSpeed_IsbL-0150_RLatLon0.09_PT042H.grib2 2026-05-02 08:51 389K
20260502T06Z_MSC_RDPS_WindSpeed_IsbL-0175_RLatLon0.09_PT042H.grib2 2026-05-02 08:51 434K
20260502T06Z_MSC_RDPS_WindSpeed_IsbL-0200_RLatLon0.09_PT042H.grib2 2026-05-02 08:51 450K
20260502T06Z_MSC_RDPS_WindSpeed_IsbL-0225_RLatLon0.09_PT042H.grib2 2026-05-02 08:51 458K
20260502T06Z_MSC_RDPS_WindSpeed_IsbL-0250_RLatLon0.09_PT042H.grib2 2026-05-02 08:51 459K
20260502T06Z_MSC_RDPS_WindSpeed_IsbL-0275_RLatLon0.09_PT042H.grib2 2026-05-02 08:51 475K
20260502T06Z_MSC_RDPS_WindSpeed_IsbL-0300_RLatLon0.09_PT042H.grib2 2026-05-02 08:51 470K
20260502T06Z_MSC_RDPS_WindSpeed_IsbL-0350_RLatLon0.09_PT042H.grib2 2026-05-02 08:51 481K
20260502T06Z_MSC_RDPS_WindSpeed_IsbL-0400_RLatLon0.09_PT042H.grib2 2026-05-02 08:51 465K
20260502T06Z_MSC_RDPS_WindSpeed_IsbL-0450_RLatLon0.09_PT042H.grib2 2026-05-02 08:51 465K
20260502T06Z_MSC_RDPS_WindSpeed_IsbL-0500_RLatLon0.09_PT042H.grib2 2026-05-02 08:51 467K
20260502T06Z_MSC_RDPS_WindSpeed_IsbL-0550_RLatLon0.09_PT042H.grib2 2026-05-02 08:51 585K
20260502T06Z_MSC_RDPS_WindSpeed_IsbL-0600_RLatLon0.09_PT042H.grib2 2026-05-02 08:51 594K
20260502T06Z_MSC_RDPS_WindSpeed_IsbL-0650_RLatLon0.09_PT042H.grib2 2026-05-02 08:51 612K
20260502T06Z_MSC_RDPS_WindSpeed_IsbL-0700_RLatLon0.09_PT042H.grib2 2026-05-02 08:51 679K
20260502T06Z_MSC_RDPS_WindSpeed_IsbL-0750_RLatLon0.09_PT042H.grib2 2026-05-02 08:51 709K
20260502T06Z_MSC_RDPS_WindSpeed_IsbL-0800_RLatLon0.09_PT042H.grib2 2026-05-02 08:51 757K
20260502T06Z_MSC_RDPS_WindSpeed_IsbL-0850_RLatLon0.09_PT042H.grib2 2026-05-02 08:51 767K
20260502T06Z_MSC_RDPS_WindSpeed_IsbL-0875_RLatLon0.09_PT042H.grib2 2026-05-02 08:51 837K
20260502T06Z_MSC_RDPS_WindSpeed_IsbL-0900_RLatLon0.09_PT042H.grib2 2026-05-02 08:51 851K
20260502T06Z_MSC_RDPS_WindSpeed_IsbL-0925_RLatLon0.09_PT042H.grib2 2026-05-02 08:51 862K
20260502T06Z_MSC_RDPS_WindSpeed_IsbL-0950_RLatLon0.09_PT042H.grib2 2026-05-02 08:51 862K
20260502T06Z_MSC_RDPS_WindSpeed_IsbL-0970_RLatLon0.09_PT042H.grib2 2026-05-02 08:51 861K
20260502T06Z_MSC_RDPS_WindSpeed_IsbL-0985_RLatLon0.09_PT042H.grib2 2026-05-02 08:51 853K
20260502T06Z_MSC_RDPS_WindSpeed_IsbL-1000_RLatLon0.09_PT042H.grib2 2026-05-02 08:51 845K
20260502T06Z_MSC_RDPS_WindSpeed_IsbL-1015_RLatLon0.09_PT042H.grib2 2026-05-02 08:51 835K
20260502T06Z_MSC_RDPS_WindU_AGL-10m_RLatLon0.09_PT042H.grib2 2026-05-02 08:51 429K
20260502T06Z_MSC_RDPS_WindU_AGL-120m_RLatLon0.09_PT042H.grib2 2026-05-02 08:51 412K
20260502T06Z_MSC_RDPS_WindU_AGL-40m_RLatLon0.09_PT042H.grib2 2026-05-02 08:51 533K
20260502T06Z_MSC_RDPS_WindU_AGL-80m_RLatLon0.09_PT042H.grib2 2026-05-02 08:51 530K
20260502T06Z_MSC_RDPS_WindU_IsbL-0001_RLatLon0.09_PT042H.grib2 2026-05-02 08:51 294K
20260502T06Z_MSC_RDPS_WindU_IsbL-0005_RLatLon0.09_PT042H.grib2 2026-05-02 08:51 284K
20260502T06Z_MSC_RDPS_WindU_IsbL-0010_RLatLon0.09_PT042H.grib2 2026-05-02 08:51 299K
20260502T06Z_MSC_RDPS_WindU_IsbL-0020_RLatLon0.09_PT042H.grib2 2026-05-02 08:51 354K
20260502T06Z_MSC_RDPS_WindU_IsbL-0030_RLatLon0.09_PT042H.grib2 2026-05-02 08:51 355K
20260502T06Z_MSC_RDPS_WindU_IsbL-0050_RLatLon0.09_PT042H.grib2 2026-05-02 08:51 382K
20260502T06Z_MSC_RDPS_WindU_IsbL-0100_RLatLon0.09_PT042H.grib2 2026-05-02 08:51 435K
20260502T06Z_MSC_RDPS_WindU_IsbL-0150_RLatLon0.09_PT042H.grib2 2026-05-02 08:51 403K
20260502T06Z_MSC_RDPS_WindU_IsbL-0175_RLatLon0.09_PT042H.grib2 2026-05-02 08:51 425K
20260502T06Z_MSC_RDPS_WindU_IsbL-0200_RLatLon0.09_PT042H.grib2 2026-05-02 08:51 342K
20260502T06Z_MSC_RDPS_WindU_IsbL-0225_RLatLon0.09_PT042H.grib2 2026-05-02 08:51 349K
20260502T06Z_MSC_RDPS_WindU_IsbL-0250_RLatLon0.09_PT042H.grib2 2026-05-02 08:51 349K
20260502T06Z_MSC_RDPS_WindU_IsbL-0275_RLatLon0.09_PT042H.grib2 2026-05-02 08:51 363K
20260502T06Z_MSC_RDPS_WindU_IsbL-0300_RLatLon0.09_PT042H.grib2 2026-05-02 08:51 356K
20260502T06Z_MSC_RDPS_WindU_IsbL-0350_RLatLon0.09_PT042H.grib2 2026-05-02 08:51 468K
20260502T06Z_MSC_RDPS_WindU_IsbL-0400_RLatLon0.09_PT042H.grib2 2026-05-02 08:51 470K
20260502T06Z_MSC_RDPS_WindU_IsbL-0450_RLatLon0.09_PT042H.grib2 2026-05-02 08:51 470K
20260502T06Z_MSC_RDPS_WindU_IsbL-0500_RLatLon0.09_PT042H.grib2 2026-05-02 08:51 472K
20260502T06Z_MSC_RDPS_WindU_IsbL-0550_RLatLon0.09_PT042H.grib2 2026-05-02 08:51 456K
20260502T06Z_MSC_RDPS_WindU_IsbL-0600_RLatLon0.09_PT042H.grib2 2026-05-02 08:51 466K
20260502T06Z_MSC_RDPS_WindU_IsbL-0650_RLatLon0.09_PT042H.grib2 2026-05-02 08:51 483K
20260502T06Z_MSC_RDPS_WindU_IsbL-0700_RLatLon0.09_PT042H.grib2 2026-05-02 08:51 504K
20260502T06Z_MSC_RDPS_WindU_IsbL-0750_RLatLon0.09_PT042H.grib2 2026-05-02 08:51 530K
20260502T06Z_MSC_RDPS_WindU_IsbL-0800_RLatLon0.09_PT042H.grib2 2026-05-02 08:51 570K
20260502T06Z_MSC_RDPS_WindU_IsbL-0850_RLatLon0.09_PT042H.grib2 2026-05-02 08:51 620K
20260502T06Z_MSC_RDPS_WindU_IsbL-0875_RLatLon0.09_PT042H.grib2 2026-05-02 08:51 649K
20260502T06Z_MSC_RDPS_WindU_IsbL-0900_RLatLon0.09_PT042H.grib2 2026-05-02 08:51 651K
20260502T06Z_MSC_RDPS_WindU_IsbL-0925_RLatLon0.09_PT042H.grib2 2026-05-02 08:51 658K
20260502T06Z_MSC_RDPS_WindU_IsbL-0950_RLatLon0.09_PT042H.grib2 2026-05-02 08:51 654K
20260502T06Z_MSC_RDPS_WindU_IsbL-0970_RLatLon0.09_PT042H.grib2 2026-05-02 08:51 652K
20260502T06Z_MSC_RDPS_WindU_IsbL-0985_RLatLon0.09_PT042H.grib2 2026-05-02 08:51 648K
20260502T06Z_MSC_RDPS_WindU_IsbL-1000_RLatLon0.09_PT042H.grib2 2026-05-02 08:51 782K
20260502T06Z_MSC_RDPS_WindU_IsbL-1015_RLatLon0.09_PT042H.grib2 2026-05-02 08:51 775K
20260502T06Z_MSC_RDPS_WindV_AGL-10m_RLatLon0.09_PT042H.grib2 2026-05-02 08:51 429K
20260502T06Z_MSC_RDPS_WindV_AGL-120m_RLatLon0.09_PT042H.grib2 2026-05-02 08:51 412K
20260502T06Z_MSC_RDPS_WindV_AGL-40m_RLatLon0.09_PT042H.grib2 2026-05-02 08:51 416K
20260502T06Z_MSC_RDPS_WindV_AGL-80m_RLatLon0.09_PT042H.grib2 2026-05-02 08:51 414K
20260502T06Z_MSC_RDPS_WindV_IsbL-0001_RLatLon0.09_PT042H.grib2 2026-05-02 08:51 247K
20260502T06Z_MSC_RDPS_WindV_IsbL-0005_RLatLon0.09_PT042H.grib2 2026-05-02 08:51 288K
20260502T06Z_MSC_RDPS_WindV_IsbL-0010_RLatLon0.09_PT042H.grib2 2026-05-02 08:51 300K
20260502T06Z_MSC_RDPS_WindV_IsbL-0020_RLatLon0.09_PT042H.grib2 2026-05-02 08:51 318K
20260502T06Z_MSC_RDPS_WindV_IsbL-0030_RLatLon0.09_PT042H.grib2 2026-05-02 08:51 318K
20260502T06Z_MSC_RDPS_WindV_IsbL-0050_RLatLon0.09_PT042H.grib2 2026-05-02 08:51 345K
20260502T06Z_MSC_RDPS_WindV_IsbL-0100_RLatLon0.09_PT042H.grib2 2026-05-02 08:51 336K
20260502T06Z_MSC_RDPS_WindV_IsbL-0150_RLatLon0.09_PT042H.grib2 2026-05-02 08:51 403K
20260502T06Z_MSC_RDPS_WindV_IsbL-0175_RLatLon0.09_PT042H.grib2 2026-05-02 08:51 330K
20260502T06Z_MSC_RDPS_WindV_IsbL-0200_RLatLon0.09_PT042H.grib2 2026-05-02 08:51 343K
20260502T06Z_MSC_RDPS_WindV_IsbL-0225_RLatLon0.09_PT042H.grib2 2026-05-02 08:51 373K
20260502T06Z_MSC_RDPS_WindV_IsbL-0250_RLatLon0.09_PT042H.grib2 2026-05-02 08:51 374K
20260502T06Z_MSC_RDPS_WindV_IsbL-0275_RLatLon0.09_PT042H.grib2 2026-05-02 08:51 385K
20260502T06Z_MSC_RDPS_WindV_IsbL-0300_RLatLon0.09_PT042H.grib2 2026-05-02 08:51 380K
20260502T06Z_MSC_RDPS_WindV_IsbL-0350_RLatLon0.09_PT042H.grib2 2026-05-02 08:51 362K
20260502T06Z_MSC_RDPS_WindV_IsbL-0400_RLatLon0.09_PT042H.grib2 2026-05-02 08:51 364K
20260502T06Z_MSC_RDPS_WindV_IsbL-0450_RLatLon0.09_PT042H.grib2 2026-05-02 08:51 365K
20260502T06Z_MSC_RDPS_WindV_IsbL-0500_RLatLon0.09_PT042H.grib2 2026-05-02 08:51 368K
20260502T06Z_MSC_RDPS_WindV_IsbL-0550_RLatLon0.09_PT042H.grib2 2026-05-02 08:51 473K
20260502T06Z_MSC_RDPS_WindV_IsbL-0600_RLatLon0.09_PT042H.grib2 2026-05-02 08:51 481K
20260502T06Z_MSC_RDPS_WindV_IsbL-0650_RLatLon0.09_PT042H.grib2 2026-05-02 08:51 497K
20260502T06Z_MSC_RDPS_WindV_IsbL-0700_RLatLon0.09_PT042H.grib2 2026-05-02 08:51 517K
20260502T06Z_MSC_RDPS_WindV_IsbL-0750_RLatLon0.09_PT042H.grib2 2026-05-02 08:51 541K
20260502T06Z_MSC_RDPS_WindV_IsbL-0800_RLatLon0.09_PT042H.grib2 2026-05-02 08:51 579K
20260502T06Z_MSC_RDPS_WindV_IsbL-0850_RLatLon0.09_PT042H.grib2 2026-05-02 08:51 626K
20260502T06Z_MSC_RDPS_WindV_IsbL-0875_RLatLon0.09_PT042H.grib2 2026-05-02 08:51 646K
20260502T06Z_MSC_RDPS_WindV_IsbL-0900_RLatLon0.09_PT042H.grib2 2026-05-02 08:51 656K
20260502T06Z_MSC_RDPS_WindV_IsbL-0925_RLatLon0.09_PT042H.grib2 2026-05-02 08:51 657K
20260502T06Z_MSC_RDPS_WindV_IsbL-0950_RLatLon0.09_PT042H.grib2 2026-05-02 08:51 655K
20260502T06Z_MSC_RDPS_WindV_IsbL-0970_RLatLon0.09_PT042H.grib2 2026-05-02 08:51 652K
20260502T06Z_MSC_RDPS_WindV_IsbL-0985_RLatLon0.09_PT042H.grib2 2026-05-02 08:51 648K
20260502T06Z_MSC_RDPS_WindV_IsbL-1000_RLatLon0.09_PT042H.grib2 2026-05-02 08:51 781K
20260502T06Z_MSC_RDPS_WindV_IsbL-1015_RLatLon0.09_PT042H.grib2 2026-05-02 08:51 773K